Location: Azul
(36.7830°S, 59.8500°W)
Time: 07:54:32
(UTC-03:00)

ISS - Pass Details

Date: 24 May 2020
Orbit: 417 x 419 km, 51.6° (Epoch: 31 May)

Event Time Altitude Azimuth Distance (km) Brightness Sun altitude
Exits shadow 06:22:04 64° 296° (WNW) 477 -3.8 -19.0°
Maximum altitude 06:22:32 83° 220° (SW) 434 -3.9 -18.9°
Drops below altitude 10° 06:25:58 10° 132° (SE) 1,525 -0.5 -18.2°
Sets 06:28:05 0° 131° (SE) 2,395 0.6 -17.8°
